User: anonymous   Login
Location: Lincolnton
(35.4660°N, 81.2500°W)
Time: 16:05:10
(UTC-05:00)
Language:

Hubble Space Telescope - Orbit

View from above orbital plane
View from above orbital plane
View from above satellite
View from above satellite

Ground track
Ground track

The orbit data is extracted from the following two-line orbital elements,

1 20580U 90037B   15031.30739583  .00003818  00000-0  23910-3 0  2128
2 20580 028.4715 336.3012 0002834 206.5623 289.3495 15.06714468159145
Epoch (UTC): 31 January 2015 07:22:39
Eccentricity: 0.0002834
inclination: 28.4715°
perigee height: 544 km
apogee height: 548 km
right ascension of ascending node: 336.3012°
argument of perigee: 206.5623°
revolutions per day: 15.06714468
mean anomaly at epoch: 289.3495°
orbit number at epoch: 15914

The dashed part of the orbit path shows where the satellite is in the earth's shadow,  

DLR